Time,TemperatureF,DewpointF,PressureIn,WindDirection,WindDirectionDegrees,WindSpeedMPH,WindSpeedGustMPH,Humidity,HourlyPrecipIn,Conditions,Clouds,dailyrainin,SoftwareType,DateUTC
2013-04-02 00:02:00,26.8,13.2,29.76,WNW,285,10.0,10.0,56,0.00,RA,BKN,0.00,WeatherDisplay:10.37,2013-04-02 04:02:00,
2013-04-02 00:08:00,26.6,13.0,29.76,WNW,290,9.0,10.0,56,0.00,RA,BKN,0.00,WeatherDisplay:10.37,2013-04-02 04:08:00,
2013-04-02 00:12:00,26.4,13.2,29.76,WNW,292,9.0,9.0,57,0.00,CLR,BKN,0.00,WeatherDisplay:10.37,2013-04-02 04:12:00,
2013-04-02 00:17:00,26.4,13.2,29.76,WNW,292,7.0,7.0,57,0.00,CLR,BKN,0.00,WeatherDisplay:10.37,2013-04-02 04:17:00,
2013-04-02 00:22:00,26.2,12.7,29.76,WNW,295,7.0,15.0,56,0.00,CLR,BKN,0.00,WeatherDisplay:10.37,2013-04-02 04:22:00,
2013-04-02 00:27:00,26.2,12.7,29.76,WNW,295,8.0,15.0,56,0.00,CLR,BKN,0.00,WeatherDisplay:10.37,2013-04-02 04:27:00,
2013-04-02 00:32:00,26.2,12.7,29.76,WNW,297,9.0,12.0,56,0.00,CLR,BKN,0.00,WeatherDisplay:10.37,2013-04-02 04:32:00,
2013-04-02 00:37:00,26.2,12.7,29.76,WNW,284,10.0,12.0,56,0.00,CLR,BKN,0.00,WeatherDisplay:10.37,2013-04-02 04:37:00,
2013-04-02 00:42:00,26.1,12.5,29.76,West,281,10.0,10.0,56,0.00,CLR,BKN,0.00,WeatherDisplay:10.37,2013-04-02 04:42:00,
2013-04-02 00:52:00,26.1,12.5,29.76,WNW,289,8.0,11.0,56,0.00,CLR,BKN,0.00,WeatherDisplay:10.37,2013-04-02 04:52:00,
2013-04-02 00:57:00,26.1,12.5,29.76,WNW,289,8.0,11.0,56,0.00,CLR,BKN,0.00,WeatherDisplay:10.37,2013-04-02 04:57:00,
2013-04-02 01:02:00,25.9,12.3,29.76,WNW,288,9.0,11.0,56,0.00,CLR,BKN,0.00,WeatherDisplay:10.37,2013-04-02 05:02:00,
2013-04-02 01:07:00,25.9,12.3,29.76,WNW,287,9.0,9.0,56,0.01,RA,BKN,0.01,WeatherDisplay:10.37,2013-04-02 05:07:00,
2013-04-02 01:17:00,25.7,12.2,29.79,West,266,7.0,7.0,56,0.01,CLR,BKN,0.01,WeatherDisplay:10.37,2013-04-02 05:17:00,
2013-04-02 01:22:00,25.5,12.0,29.79,WSW,257,6.0,8.0,56,0.01,CLR,BKN,0.01,WeatherDisplay:10.37,2013-04-02 05:22:00,
2013-04-02 01:32:00,25.3,11.0,29.79,WNW,290,7.0,10.0,54,0.01,CLR,BKN,0.01,WeatherDisplay:10.37,2013-04-02 05:32:00,
2013-04-02 01:37:00,25.3,11.4,29.79,WNW,285,8.0,10.0,55,0.01,CLR,BKN,0.01,WeatherDisplay:10.37,2013-04-02 05:37:00,
2013-04-02 01:42:00,25.3,11.4,29.79,West,272,8.0,10.0,55,0.01,CLR,BKN,0.01,WeatherDisplay:10.37,2013-04-02 05:42:00,
2013-04-02 01:47:00,25.3,11.4,29.76,West,269,9.0,10.0,55,0.01,CLR,BKN,0.01,WeatherDisplay:10.37,2013-04-02 05:47:00,
2013-04-02 01:57:00,25.2,11.2,29.76,WNW,282,7.0,7.0,55,0.01,CLR,BKN,0.01,WeatherDisplay:10.37,2013-04-02 05:57:00,
2013-04-02 02:02:00,25.0,11.1,29.76,WNW,287,7.0,9.0,55,0.01,CLR,BKN,0.01,WeatherDisplay:10.37,2013-04-02 06:02:00,
2013-04-02 02:12:00,24.8,10.9,29.76,WNW,285,7.0,7.0,55,0.00,CLR,BKN,0.01,WeatherDisplay:10.37,2013-04-02 06:12:00,
2013-04-02 02:17:00,24.6,10.7,29.76,WNW,283,6.0,6.0,55,0.00,CLR,BKN,0.01,WeatherDisplay:10.37,2013-04-02 06:17:00,
2013-04-02 02:22:00,24.6,11.1,29.76,WNW,287,6.0,8.0,56,0.00,CLR,BKN,0.01,WeatherDisplay:10.37,2013-04-02 06:22:00,
2013-04-02 02:27:00,24.4,10.6,29.76,WNW,287,5.0,7.0,55,0.00,CLR,BKN,0.01,WeatherDisplay:10.37,2013-04-02 06:27:00,
2013-04-02 02:32:00,24.4,10.6,29.76,WNW,282,6.0,12.0,55,0.00,CLR,BKN,0.01,WeatherDisplay:10.37,2013-04-02 06:32:00,
2013-04-02 02:37:00,24.4,10.6,29.76,West,270,7.0,13.0,55,0.00,CLR,BKN,0.01,WeatherDisplay:10.37,2013-04-02 06:37:00,
2013-04-02 02:42:00,24.3,10.4,29.76,West,260,6.0,13.0,55,0.00,CLR,BKN,0.01,WeatherDisplay:10.37,2013-04-02 06:42:00,
2013-04-02 02:52:00,24.3,10.4,29.76,WNW,285,7.0,12.0,55,0.00,CLR,BKN,0.01,WeatherDisplay:10.37,2013-04-02 06:52:00,
2013-04-02 02:57:00,24.1,10.6,29.76,WNW,284,8.0,9.0,56,0.00,CLR,BKN,0.01,WeatherDisplay:10.37,2013-04-02 06:57:00,
2013-04-02 03:02:00,24.1,10.6,29.76,West,280,8.0,8.0,56,0.00,CLR,BKN,0.01,WeatherDisplay:10.37,2013-04-02 07:02:00,
2013-04-02 03:07:00,24.1,10.6,29.76,West,280,8.0,8.0,56,0.00,CLR,BKN,0.01,WeatherDisplay:10.37,2013-04-02 07:07:00,
2013-04-02 03:12:00,23.9,10.9,29.76,WNW,282,8.0,8.0,57,0.00,CLR,BKN,0.01,WeatherDisplay:10.37,2013-04-02 07:12:00,
2013-04-02 03:17:00,23.9,10.9,29.76,West,264,6.0,9.0,57,0.00,CLR,BKN,0.01,WeatherDisplay:10.37,2013-04-02 07:17:00,
2013-04-02 03:22:00,23.9,10.9,29.76,WSW,257,7.0,9.0,57,0.00,CLR,BKN,0.01,WeatherDisplay:10.37,2013-04-02 07:22:00,
2013-04-02 03:27:00,23.9,10.9,29.76,West,269,8.0,10.0,57,0.00,CLR,BKN,0.01,WeatherDisplay:10.37,2013-04-02 07:27:00,
2013-04-02 03:37:00,23.7,10.7,29.76,West,278,8.0,9.0,57,0.00,CLR,BKN,0.01,WeatherDisplay:10.37,2013-04-02 07:37:00,
2013-04-02 03:42:00,23.7,10.7,29.76,West,275,8.0,8.0,57,0.00,CLR,BKN,0.01,WeatherDisplay:10.37,2013-04-02 07:42:00,
2013-04-02 03:52:00,23.4,10.7,29.76,West,274,7.0,8.0,58,0.00,CLR,BKN,0.01,WeatherDisplay:10.37,2013-04-02 07:52:00,
2013-04-02 04:02:00,23.4,10.7,29.76,WSW,257,6.0,6.0,58,0.00,CLR,BKN,0.01,WeatherDisplay:10.37,2013-04-02 08:02:00,
2013-04-02 04:07:00,23.2,10.6,29.76,West,275,5.0,6.0,58,0.00,CLR,BKN,0.01,WeatherDisplay:10.37,2013-04-02 08:07:00,
2013-04-02 04:12:00,23.2,10.6,29.76,West,272,6.0,6.0,58,0.00,CLR,BKN,0.01,WeatherDisplay:10.37,2013-04-02 08:12:00,
2013-04-02 04:17:00,23.2,10.6,29.76,WSW,254,5.0,7.0,58,0.00,CLR,BKN,0.01,WeatherDisplay:10.37,2013-04-02 08:17:00,
2013-04-02 04:27:00,23.2,10.6,29.76,WSW,251,5.0,5.0,58,0.00,CLR,BKN,0.01,WeatherDisplay:10.37,2013-04-02 08:27:00,
2013-04-02 04:32:00,23.0,10.8,29.76,WSW,250,3.0,3.0,59,0.00,CLR,BKN,0.01,WeatherDisplay:10.37,2013-04-02 08:32:00,
2013-04-02 04:37:00,22.8,10.6,29.76,WSW,247,2.0,2.0,59,0.00,CLR,BKN,0.01,WeatherDisplay:10.37,2013-04-02 08:37:00,
2013-04-02 04:47:00,22.6,10.8,29.76,WSW,244,1.0,4.0,60,0.00,CLR,BKN,0.01,WeatherDisplay:10.37,2013-04-02 08:47:00,
2013-04-02 04:52:00,22.8,11.0,29.76,West,281,3.0,10.0,60,0.00,CLR,BKN,0.01,WeatherDisplay:10.37,2013-04-02 08:52:00,
2013-04-02 04:58:00,22.8,11.0,29.76,West,272,3.0,7.0,60,0.00,CLR,BKN,0.01,WeatherDisplay:10.37,2013-04-02 08:58:00,
2013-04-02 05:03:00,22.8,11.0,29.76,West,270,6.0,7.0,60,0.00,CLR,BKN,0.01,WeatherDisplay:10.37,2013-04-02 09:03:00,
2013-04-02 05:08:00,22.8,11.0,29.76,West,277,6.0,7.0,60,0.00,CLR,BKN,0.01,WeatherDisplay:10.37,2013-04-02 09:08:00,
2013-04-02 05:13:00,22.8,11.0,29.79,West,278,6.0,8.0,60,0.00,CLR,BKN,0.01,WeatherDisplay:10.37,2013-04-02 09:13:00,
2013-04-02 05:17:00,22.6,11.2,29.79,West,271,6.0,6.0,61,0.00,CLR,BKN,0.01,WeatherDisplay:10.37,2013-04-02 09:17:00,
2013-04-02 05:23:00,22.6,11.2,29.79,West,263,5.0,5.0,61,0.00,CLR,BKN,0.01,WeatherDisplay:10.37,2013-04-02 09:23:00,
2013-04-02 05:32:00,22.5,11.4,29.79,West,262,3.0,5.0,62,0.00,CLR,BKN,0.01,WeatherDisplay:10.37,2013-04-02 09:32:00,
2013-04-02 05:37:00,22.5,11.0,29.79,West,269,3.0,8.0,61,0.00,CLR,BKN,0.01,WeatherDisplay:10.37,2013-04-02 09:37:00,
2013-04-02 05:42:00,22.5,11.4,29.79,West,267,3.0,8.0,62,0.00,CLR,BKN,0.01,WeatherDisplay:10.37,2013-04-02 09:42:00,
2013-04-02 05:47:00,22.5,11.4,29.79,West,261,5.0,7.0,62,0.00,CLR,BKN,0.01,WeatherDisplay:10.37,2013-04-02 09:47:00,
2013-04-02 05:52:00,22.5,11.4,29.79,West,264,5.0,5.0,62,0.00,CLR,BKN,0.01,WeatherDisplay:10.37,2013-04-02 09:52:00,
2013-04-02 05:57:00,22.5,11.4,29.79,West,273,6.0,8.0,62,0.00,CLR,BKN,0.01,WeatherDisplay:10.37,2013-04-02 09:57:00,
2013-04-02 06:02:00,22.5,11.4,29.79,West,272,6.0,8.0,62,0.00,CLR,BKN,0.01,WeatherDisplay:10.37,2013-04-02 10:02:00,
2013-04-02 06:12:00,22.5,11.4,29.79,West,277,7.0,9.0,62,0.00,CLR,BKN,0.01,WeatherDisplay:10.37,2013-04-02 10:12:00,
2013-04-02 06:22:00,22.5,11.4,29.79,West,264,9.0,12.0,62,0.00,CLR,BKN,0.01,WeatherDisplay:10.37,2013-04-02 10:22:00,
2013-04-02 06:32:00,22.1,11.4,29.79,West,262,6.0,6.0,63,0.00,CLR,BKN,0.01,WeatherDisplay:10.37,2013-04-02 10:32:00,
2013-04-02 06:42:00,21.9,11.6,29.79,West,261,5.0,5.0,64,0.00,CLR,BKN,0.01,WeatherDisplay:10.37,2013-04-02 10:42:00,
2013-04-02 06:47:00,21.7,11.4,29.79,West,261,2.0,7.0,64,0.00,CLR,BKN,0.01,WeatherDisplay:10.37,2013-04-02 10:47:00,
2013-04-02 06:52:00,21.9,11.6,29.79,WSW,253,2.0,7.0,64,0.00,CLR,BKN,0.01,WeatherDisplay:10.37,2013-04-02 10:52:00,
2013-04-02 07:02:00,21.9,11.9,29.79,WSW,250,2.0,2.0,65,0.00,CLR,BKN,0.01,WeatherDisplay:10.37,2013-04-02 11:02:00,
2013-04-02 07:07:00,22.1,12.1,29.79,WSW,244,2.0,3.0,65,0.00,CLR,BKN,0.01,WeatherDisplay:10.37,2013-04-02 11:07:00,
2013-04-02 07:12:00,22.3,12.6,29.79,WSW,238,2.0,8.0,66,0.00,CLR,BKN,0.01,WeatherDisplay:10.37,2013-04-02 11:12:00,
2013-04-02 07:17:00,22.5,12.5,29.79,WSW,240,2.0,2.0,65,0.00,CLR,BKN,0.01,WeatherDisplay:10.37,2013-04-02 11:17:00,
2013-04-02 07:22:00,22.5,12.8,29.79,WSW,256,2.0,2.0,66,0.00,CLR,BKN,0.01,WeatherDisplay:10.37,2013-04-02 11:22:00,
2013-04-02 07:27:00,22.6,12.6,29.79,WSW,257,2.0,7.0,65,0.00,CLR,BKN,0.01,WeatherDisplay:10.37,2013-04-02 11:27:00,
2013-04-02 07:32:00,23.0,13.0,29.82,West,262,3.0,6.0,65,0.00,CLR,BKN,0.01,WeatherDisplay:10.37,2013-04-02 11:32:00,
2013-04-02 07:37:00,23.4,13.3,29.82,West,262,5.0,6.0,65,0.00,CLR,BKN,0.01,WeatherDisplay:10.37,2013-04-02 11:37:00,
2013-04-02 07:42:00,23.4,13.3,29.82,WSW,255,3.0,6.0,65,0.00,CLR,BKN,0.01,WeatherDisplay:10.37,2013-04-02 11:42:00,
2013-04-02 07:52:00,23.9,13.1,29.82,WNW,282,6.0,12.0,63,0.00,CLR,BKN,0.01,WeatherDisplay:10.37,2013-04-02 11:52:00,
2013-04-02 08:02:00,23.9,13.1,29.82,West,279,7.0,9.0,63,0.00,CLR,BKN,0.01,WeatherDisplay:10.37,2013-04-02 12:02:00,
2013-04-02 08:07:00,24.3,12.7,29.82,WNW,283,8.0,9.0,61,0.00,CLR,BKN,0.01,WeatherDisplay:10.37,2013-04-02 12:07:00,
2013-04-02 08:17:00,24.6,13.1,29.82,West,274,7.0,12.0,61,0.00,CLR,BKN,0.01,WeatherDisplay:10.37,2013-04-02 12:17:00,
2013-04-02 08:22:00,24.6,12.7,29.82,West,265,8.0,12.0,60,0.00,CLR,BKN,0.01,WeatherDisplay:10.37,2013-04-02 12:22:00,
2013-04-02 08:27:00,24.8,12.5,29.82,West,265,8.0,11.0,59,0.00,CLR,BKN,0.01,WeatherDisplay:10.37,2013-04-02 12:27:00,
2013-04-02 08:32:00,25.2,13.2,29.82,WSW,258,7.0,7.0,60,0.00,CLR,BKN,0.01,WeatherDisplay:10.37,2013-04-02 12:32:00,
2013-04-02 08:37:00,25.9,13.1,29.82,West,259,7.0,11.0,58,0.00,CLR,BKN,0.01,WeatherDisplay:10.37,2013-04-02 12:37:00,
2013-04-02 08:47:00,26.1,12.5,29.82,West,275,8.0,16.0,56,0.00,CLR,BKN,0.01,WeatherDisplay:10.37,2013-04-02 12:47:00,
2013-04-02 08:52:00,26.2,11.8,29.82,West,273,12.0,18.0,54,0.00,CLR,BKN,0.01,WeatherDisplay:10.37,2013-04-02 12:52:00,
2013-04-02 09:02:00,27.0,12.1,29.82,WNW,283,15.0,16.0,53,0.00,CLR,BKN,0.01,WeatherDisplay:10.37,2013-04-02 13:02:00,
2013-04-02 09:12:00,27.5,12.6,29.82,West,270,16.0,16.0,53,0.00,CLR,BKN,0.01,WeatherDisplay:10.37,2013-04-02 13:12:00,
2013-04-02 09:22:00,29.3,12.9,29.82,West,267,9.0,12.0,50,0.00,CLR,BKN,0.01,WeatherDisplay:10.37,2013-04-02 13:22:00,
2013-04-02 09:27:00,29.5,13.6,29.82,West,271,9.0,12.0,51,0.00,CLR,BKN,0.01,WeatherDisplay:10.37,2013-04-02 13:27:00,
2013-04-02 09:32:00,29.7,12.3,29.82,West,278,9.0,20.0,48,0.00,CLR,BKN,0.01,WeatherDisplay:10.37,2013-04-02 13:32:00,
2013-04-02 09:37:00,29.5,12.6,29.82,West,268,12.0,20.0,49,0.00,CLR,BKN,0.01,WeatherDisplay:10.37,2013-04-02 13:37:00,
2013-04-02 09:47:00,30.0,12.2,29.82,WNW,286,12.0,14.0,47,0.00,CLR,BKN,0.01,WeatherDisplay:10.37,2013-04-02 13:47:00,
2013-04-02 09:52:00,30.2,12.4,29.82,West,265,12.0,14.0,47,0.00,CLR,BKN,0.01,WeatherDisplay:10.37,2013-04-02 13:52:00,
2013-04-02 09:57:00,30.0,12.2,29.82,West,260,12.0,17.0,47,0.00,CLR,BKN,0.01,WeatherDisplay:10.37,2013-04-02 13:57:00,
2013-04-02 10:07:00,32.0,14.5,29.82,WSW,252,12.0,13.0,48,0.00,CLR,BKN,0.01,WeatherDisplay:10.37,2013-04-02 14:07:00,
2013-04-02 10:17:00,31.8,13.4,29.82,West,266,10.0,10.0,46,0.00,CLR,BKN,0.01,WeatherDisplay:10.37,2013-04-02 14:17:00,
2013-04-02 10:22:00,31.3,12.9,29.82,West,273,12.0,21.0,46,0.00,CLR,BKN,0.01,WeatherDisplay:10.37,2013-04-02 14:22:00,
2013-04-02 10:32:00,31.1,12.7,29.82,WNW,286,12.0,12.0,46,0.00,CLR,BKN,0.01,WeatherDisplay:10.37,2013-04-02 14:32:00,
2013-04-02 10:37:00,31.5,13.0,29.82,WNW,290,12.0,15.0,46,0.00,CLR,BKN,0.01,WeatherDisplay:10.37,2013-04-02 14:37:00,
2013-04-02 10:42:00,31.5,13.0,29.82,WNW,285,12.0,15.0,46,0.00,CLR,BKN,0.01,WeatherDisplay:10.37,2013-04-02 14:42:00,
2013-04-02 10:47:00,33.4,14.8,29.82,WNW,289,9.0,11.0,46,0.00,CLR,BKN,0.01,WeatherDisplay:10.37,2013-04-02 14:47:00,
2013-04-02 10:52:00,33.4,12.2,29.82,WNW,287,9.0,18.0,41,0.00,CLR,BKN,0.01,WeatherDisplay:10.37,2013-04-02 14:52:00,
2013-04-02 10:57:00,32.9,12.3,29.82,WNW,287,12.0,18.0,42,0.00,CLR,BKN,0.01,WeatherDisplay:10.37,2013-04-02 14:57:00,
2013-04-02 11:07:00,32.2,13.2,29.82,West,262,13.0,13.0,45,0.00,CLR,BKN,0.01,WeatherDisplay:10.37,2013-04-02 15:07:00,
2013-04-02 11:12:00,32.2,13.2,29.82,West,260,13.0,14.0,45,0.00,CLR,BKN,0.01,WeatherDisplay:10.37,2013-04-02 15:12:00,
2013-04-02 11:22:00,31.6,17.3,29.82,West,259,9.0,10.0,55,0.00,CLR,BKN,0.01,WeatherDisplay:10.37,2013-04-02 15:22:00,
2013-04-02 11:27:00,32.2,18.6,29.82,WSW,238,9.0,9.0,57,0.00,CLR,BKN,0.01,WeatherDisplay:10.37,2013-04-02 15:27:00,
2013-04-02 11:32:00,32.9,16.7,29.82,WSW,253,9.0,12.0,51,0.00,CLR,BKN,0.01,WeatherDisplay:10.37,2013-04-02 15:32:00,
2013-04-02 11:37:00,32.9,15.8,29.82,WNW,284,9.0,12.0,49,0.00,CLR,BKN,0.01,WeatherDisplay:10.37,2013-04-02 15:37:00,
2013-04-02 11:47:00,32.2,14.7,29.82,WSW,254,10.0,12.0,48,0.00,CLR,BKN,0.01,WeatherDisplay:10.37,2013-04-02 15:47:00,
2013-04-02 11:52:00,32.4,16.2,29.82,West,272,10.0,12.0,51,0.00,CLR,BKN,0.01,WeatherDisplay:10.37,2013-04-02 15:52:00,
2013-04-02 11:57:00,32.0,15.4,29.82,West,279,10.0,12.0,50,0.00,CLR,BKN,0.01,WeatherDisplay:10.37,2013-04-02 15:57:00,
2013-04-02 12:07:00,30.4,16.9,29.82,West,275,12.0,19.0,57,0.00,CLR,BKN,0.01,WeatherDisplay:10.37,2013-04-02 16:07:00,
2013-04-02 12:17:00,30.9,16.6,29.79,WNW,285,13.0,15.0,55,0.00,CLR,BKN,0.01,WeatherDisplay:10.37,2013-04-02 16:17:00,
2013-04-02 12:22:00,31.8,15.7,29.79,WSW,258,13.0,15.0,51,0.00,CLR,BKN,0.01,WeatherDisplay:10.37,2013-04-02 16:22:00,
2013-04-02 12:27:00,32.0,15.4,29.79,West,262,12.0,12.0,50,0.00,CLR,BKN,0.01,WeatherDisplay:10.37,2013-04-02 16:27:00,
2013-04-02 12:37:00,32.7,14.7,29.79,West,279,12.0,17.0,47,0.00,CLR,BKN,0.01,WeatherDisplay:10.37,2013-04-02 16:37:00,
2013-04-02 12:47:00,32.5,14.0,29.79,West,276,13.0,16.0,46,0.00,CLR,BKN,0.01,WeatherDisplay:10.37,2013-04-02 16:47:00,
2013-04-02 12:53:00,32.5,14.0,29.79,WNW,294,14.0,20.0,46,0.00,CLR,BKN,0.01,WeatherDisplay:10.37,2013-04-02 16:53:00,
2013-04-02 13:03:00,32.0,13.5,29.79,WNW,285,15.0,15.0,46,0.00,CLR,BKN,0.01,WeatherDisplay:10.37,2013-04-02 17:03:00,
2013-04-02 13:08:00,32.9,12.8,29.79,WNW,297,14.0,18.0,43,0.00,CLR,BKN,0.01,WeatherDisplay:10.37,2013-04-02 17:08:00,
2013-04-02 13:13:00,33.1,13.5,29.79,WNW,294,14.0,18.0,44,0.00,CLR,BKN,0.01,WeatherDisplay:10.37,2013-04-02 17:13:00,
2013-04-02 13:18:00,32.9,12.8,29.79,WNW,286,13.0,13.0,43,0.00,CLR,BKN,0.01,WeatherDisplay:10.37,2013-04-02 17:18:00,
2013-04-02 13:23:00,33.6,13.5,29.79,West,263,13.0,19.0,43,0.00,CLR,BKN,0.01,WeatherDisplay:10.37,2013-04-02 17:23:00,
2013-04-02 13:28:00,34.2,12.9,29.79,West,268,14.0,19.0,41,0.00,CLR,BKN,0.01,WeatherDisplay:10.37,2013-04-02 17:28:00,
2013-04-02 13:33:00,34.0,11.6,29.79,West,261,13.0,15.0,39,0.00,CLR,BKN,0.01,WeatherDisplay:10.37,2013-04-02 17:33:00,
2013-04-02 13:42:00,32.7,11.0,29.79,West,266,14.0,23.0,40,0.00,CLR,BKN,0.01,WeatherDisplay:10.37,2013-04-02 17:42:00,
2013-04-02 13:47:00,32.9,12.3,29.79,West,281,14.0,14.0,42,0.00,CLR,BKN,0.01,WeatherDisplay:10.37,2013-04-02 17:47:00,
2013-04-02 13:53:00,33.3,10.9,29.79,West,265,15.0,17.0,39,0.00,CLR,BKN,0.01,WeatherDisplay:10.37,2013-04-02 17:53:00,
2013-04-02 14:03:00,34.2,9.9,29.79,WSW,256,13.0,18.0,36,0.00,CLR,BKN,0.01,WeatherDisplay:10.37,2013-04-02 18:03:00,
2013-04-02 14:08:00,33.6,9.5,29.79,West,263,13.0,16.0,36,0.00,CLR,BKN,0.01,WeatherDisplay:10.37,2013-04-02 18:08:00,
2013-04-02 14:18:00,34.2,11.2,29.79,West,275,14.0,20.0,38,0.00,CLR,BKN,0.01,WeatherDisplay:10.37,2013-04-02 18:18:00,
2013-04-02 14:23:00,34.2,10.6,29.79,West,265,14.0,20.0,37,0.00,CLR,BKN,0.01,WeatherDisplay:10.37,2013-04-02 18:23:00,
2013-04-02 14:32:00,35.4,11.7,29.79,WSW,245,14.0,18.0,37,0.00,CLR,BKN,0.01,WeatherDisplay:10.37,2013-04-02 18:32:00,
2013-04-02 14:38:00,35.1,11.4,29.79,WSW,253,14.0,18.0,37,0.00,CLR,BKN,0.01,WeatherDisplay:10.37,2013-04-02 18:38:00,
2013-04-02 14:53:00,35.1,12.0,29.79,WSW,257,13.0,13.0,38,0.00,CLR,BKN,0.01,WeatherDisplay:10.37,2013-04-02 18:53:00,
2013-04-02 15:02:00,35.1,12.0,29.79,West,265,13.0,13.0,38,0.00,CLR,BKN,0.01,WeatherDisplay:10.37,2013-04-02 19:02:00,
2013-04-02 15:07:00,33.4,9.3,29.76,West,259,8.0,15.0,36,0.00,CLR,BKN,0.01,WeatherDisplay:10.37,2013-04-02 19:07:00,
2013-04-02 15:12:00,33.1,9.6,29.76,West,268,9.0,13.0,37,0.00,CLR,BKN,0.01,WeatherDisplay:10.37,2013-04-02 19:12:00,
2013-04-02 15:17:00,32.9,9.4,29.76,WNW,285,10.0,14.0,37,0.00,CLR,BKN,0.01,WeatherDisplay:10.37,2013-04-02 19:17:00,
2013-04-02 15:27:00,33.1,10.8,29.79,WSW,243,12.0,13.0,39,0.00,CLR,BKN,0.01,WeatherDisplay:10.37,2013-04-02 19:27:00,
2013-04-02 15:32:00,33.1,9.6,29.76,WSW,239,13.0,18.0,37,0.00,CLR,BKN,0.01,WeatherDisplay:10.37,2013-04-02 19:32:00,
2013-04-02 15:37:00,33.1,8.4,29.76,West,268,12.0,19.0,35,0.00,CLR,BKN,0.01,WeatherDisplay:10.37,2013-04-02 19:37:00,
2013-04-02 15:47:00,32.7,9.3,29.76,West,280,16.0,19.0,37,0.00,CLR,BKN,0.01,WeatherDisplay:10.37,2013-04-02 19:47:00,
2013-04-02 15:53:00,32.9,9.4,29.76,West,275,15.0,16.0,37,0.00,CLR,BKN,0.01,WeatherDisplay:10.37,2013-04-02 19:53:00,
2013-04-02 16:07:00,32.5,9.7,29.79,West,273,14.0,17.0,38,0.00,CLR,BKN,0.01,WeatherDisplay:10.37,2013-04-02 20:07:00,
2013-04-02 16:17:00,32.0,8.6,29.79,WNW,285,16.0,17.0,37,0.00,CLR,BKN,0.01,WeatherDisplay:10.37,2013-04-02 20:17:00,
2013-04-02 16:22:00,31.8,9.6,29.79,WNW,287,16.0,21.0,39,0.00,CLR,BKN,0.01,WeatherDisplay:10.37,2013-04-02 20:22:00,
2013-04-02 16:27:00,31.8,10.8,29.79,WNW,286,17.0,21.0,41,0.00,CLR,BKN,0.01,WeatherDisplay:10.37,2013-04-02 20:27:00,
2013-04-02 16:37:00,32.0,11.5,29.79,West,274,17.0,17.0,42,0.00,CLR,BKN,0.01,WeatherDisplay:10.37,2013-04-02 20:37:00,
2013-04-02 16:42:00,31.3,10.3,29.79,West,272,17.0,20.0,41,0.00,CLR,BKN,0.01,WeatherDisplay:10.37,2013-04-02 20:42:00,
2013-04-02 16:52:00,31.3,10.8,29.79,WNW,283,15.0,20.0,42,0.00,CLR,BKN,0.01,WeatherDisplay:10.37,2013-04-02 20:52:00,
2013-04-02 17:02:00,31.3,10.8,29.79,West,280,15.0,15.0,42,0.00,CLR,BKN,0.01,WeatherDisplay:10.37,2013-04-02 21:02:00,
2013-04-02 17:07:00,31.3,10.8,29.79,West,280,15.0,15.0,42,0.00,CLR,BKN,0.01,WeatherDisplay:10.37,2013-04-02 21:07:00,
2013-04-02 17:17:00,31.1,9.0,29.79,West,275,13.0,13.0,39,0.00,CLR,BKN,0.01,WeatherDisplay:10.37,2013-04-02 21:17:00,
2013-04-02 17:22:00,31.3,8.6,29.79,West,272,13.0,14.0,38,0.00,CLR,BKN,0.01,WeatherDisplay:10.37,2013-04-02 21:22:00,
2013-04-02 17:32:00,30.4,8.3,29.79,West,276,13.0,25.0,39,0.00,CLR,BKN,0.01,WeatherDisplay:10.37,2013-04-02 21:32:00,
2013-04-02 17:42:00,31.1,9.0,29.82,West,274,14.0,18.0,39,0.00,CLR,BKN,0.01,WeatherDisplay:10.37,2013-04-02 21:42:00,
2013-04-02 17:47:00,30.2,9.3,29.82,West,279,15.0,20.0,41,0.00,CLR,BKN,0.01,WeatherDisplay:10.37,2013-04-02 21:47:00,
2013-04-02 17:57:00,29.3,8.5,29.82,West,276,15.0,21.0,41,0.00,CLR,BKN,0.01,WeatherDisplay:10.37,2013-04-02 21:57:00,
2013-04-02 18:07:00,29.1,8.8,29.82,WNW,285,16.0,17.0,42,0.00,CLR,BKN,0.01,WeatherDisplay:10.37,2013-04-02 22:07:00,
2013-04-02 18:12:00,29.3,8.5,29.82,WNW,284,16.0,18.0,41,0.00,CLR,BKN,0.01,WeatherDisplay:10.37,2013-04-02 22:12:00,
2013-04-02 18:22:00,29.3,8.5,29.82,WNW,287,16.0,20.0,41,0.00,CLR,BKN,0.01,WeatherDisplay:10.37,2013-04-02 22:22:00,
2013-04-02 18:32:00,29.3,7.9,29.82,WNW,284,16.0,18.0,40,0.00,CLR,BKN,0.01,WeatherDisplay:10.37,2013-04-02 22:32:00,
2013-04-02 18:37:00,29.3,7.9,29.82,WNW,293,15.0,15.0,40,0.00,CLR,BKN,0.01,WeatherDisplay:10.37,2013-04-02 22:37:00,
2013-04-02 18:42:00,29.3,7.9,29.82,WNW,284,15.0,20.0,40,0.00,CLR,BKN,0.01,WeatherDisplay:10.37,2013-04-02 22:42:00,
2013-04-02 18:47:00,29.3,8.5,29.82,West,273,14.0,18.0,41,0.00,CLR,BKN,0.01,WeatherDisplay:10.37,2013-04-02 22:47:00,
2013-04-02 18:57:00,28.8,8.0,29.82,WNW,282,15.0,17.0,41,0.00,CLR,BKN,0.01,WeatherDisplay:10.37,2013-04-02 22:57:00,
2013-04-02 19:02:00,28.6,7.8,29.82,WNW,283,16.0,25.0,41,0.00,CLR,BKN,0.01,WeatherDisplay:10.37,2013-04-02 23:02:00,
2013-04-02 19:07:00,28.6,8.9,29.85,West,261,16.0,16.0,43,0.00,CLR,BKN,0.01,WeatherDisplay:10.37,2013-04-02 23:07:00,
2013-04-02 19:12:00,28.4,8.2,29.85,West,265,16.0,20.0,42,0.00,CLR,BKN,0.01,WeatherDisplay:10.37,2013-04-02 23:12:00,
2013-04-02 19:17:00,28.4,8.7,29.85,WNW,285,16.0,18.0,43,0.00,CLR,BKN,0.01,WeatherDisplay:10.37,2013-04-02 23:17:00,
2013-04-02 19:22:00,28.4,9.7,29.82,West,276,15.0,18.0,45,0.00,CLR,BKN,0.01,WeatherDisplay:10.37,2013-04-02 23:22:00,
2013-04-02 19:32:00,28.4,9.7,29.85,West,275,13.0,13.0,45,0.00,CLR,BKN,0.01,WeatherDisplay:10.37,2013-04-02 23:32:00,
2013-04-02 19:37:00,28.2,10.5,29.82,West,263,10.0,13.0,47,0.00,CLR,BKN,0.01,WeatherDisplay:10.37,2013-04-02 23:37:00,
2013-04-02 19:47:00,28.0,9.9,29.85,West,269,8.0,12.0,46,0.00,CLR,BKN,0.01,WeatherDisplay:10.37,2013-04-02 23:47:00,
2013-04-02 19:52:00,28.0,9.9,29.85,West,276,10.0,12.0,46,0.00,CLR,BKN,0.01,WeatherDisplay:10.37,2013-04-02 23:52:00,
2013-04-02 19:57:00,27.9,10.2,29.85,West,271,10.0,12.0,47,0.00,CLR,BKN,0.01,WeatherDisplay:10.37,2013-04-02 23:57:00,
2013-04-02 20:07:00,27.9,11.1,29.85,West,264,13.0,18.0,49,0.00,CLR,BKN,0.01,WeatherDisplay:10.37,2013-04-03 00:07:00,
2013-04-02 20:12:00,27.5,11.3,29.85,West,267,13.0,14.0,50,0.00,CLR,BKN,0.01,WeatherDisplay:10.37,2013-04-03 00:12:00,
2013-04-02 20:22:00,27.1,11.4,29.85,West,275,13.0,13.0,51,0.00,CLR,BKN,0.01,WeatherDisplay:10.37,2013-04-03 00:22:00,
2013-04-02 20:32:00,27.1,10.9,29.85,West,271,12.0,16.0,50,0.00,CLR,BKN,0.01,WeatherDisplay:10.37,2013-04-03 00:32:00,
2013-04-02 20:47:00,27.1,11.4,29.85,West,268,13.0,20.0,51,0.00,CLR,BKN,0.01,WeatherDisplay:10.37,2013-04-03 00:47:00,
2013-04-02 20:53:00,27.0,11.7,29.85,West,271,14.0,20.0,52,0.00,CLR,BKN,0.01,WeatherDisplay:10.37,2013-04-03 00:53:00,
2013-04-02 20:58:00,27.0,11.7,29.85,West,276,14.0,15.0,52,0.00,CLR,BKN,0.01,WeatherDisplay:10.37,2013-04-03 00:58:00,
2013-04-02 21:03:00,26.8,11.5,29.85,West,269,14.0,17.0,52,0.00,CLR,BKN,0.01,WeatherDisplay:10.37,2013-04-03 01:03:00,
2013-04-02 21:13:00,26.8,11.9,29.85,West,269,14.0,14.0,53,0.00,CLR,BKN,0.01,WeatherDisplay:10.37,2013-04-03 01:13:00,
2013-04-02 21:23:00,26.8,11.9,29.88,West,275,10.0,12.0,53,0.00,CLR,BKN,0.01,WeatherDisplay:10.37,2013-04-03 01:23:00,
2013-04-02 21:28:00,26.8,12.3,29.88,West,267,9.0,9.0,54,0.00,CLR,BKN,0.01,WeatherDisplay:10.37,2013-04-03 01:28:00,
2013-04-02 21:33:00,26.8,12.3,29.88,West,266,9.0,13.0,54,0.00,CLR,BKN,0.01,WeatherDisplay:10.37,2013-04-03 01:33:00,
2013-04-02 21:38:00,26.8,12.8,29.88,WSW,238,9.0,9.0,55,0.00,CLR,BKN,0.01,WeatherDisplay:10.37,2013-04-03 01:38:00,
2013-04-02 21:48:00,27.0,13.3,29.88,WSW,254,8.0,10.0,56,0.00,CLR,BKN,0.01,WeatherDisplay:10.37,2013-04-03 01:48:00,
2013-04-02 21:57:00,26.8,13.6,29.88,WSW,249,8.0,8.0,57,0.00,CLR,BKN,0.01,WeatherDisplay:10.37,2013-04-03 01:57:00,
2013-04-02 22:02:00,26.8,13.2,29.88,West,262,8.0,12.0,56,0.00,CLR,BKN,0.01,WeatherDisplay:10.37,2013-04-03 02:02:00,
2013-04-02 22:07:00,26.8,13.2,29.85,West,266,8.0,17.0,56,0.00,CLR,BKN,0.01,WeatherDisplay:10.37,2013-04-03 02:07:00,
2013-04-02 22:12:00,26.8,13.6,29.85,West,268,8.0,17.0,57,0.00,CLR,BKN,0.01,WeatherDisplay:10.37,2013-04-03 02:12:00,
2013-04-02 22:18:00,26.8,13.2,29.85,West,276,12.0,16.0,56,0.00,CLR,BKN,0.01,WeatherDisplay:10.37,2013-04-03 02:18:00,
2013-04-02 22:27:00,26.8,13.6,29.85,West,269,13.0,14.0,57,0.00,CLR,BKN,0.01,WeatherDisplay:10.37,2013-04-03 02:27:00,
2013-04-02 22:32:00,26.8,13.6,29.88,West,267,12.0,12.0,57,0.00,CLR,BKN,0.01,WeatherDisplay:10.37,2013-04-03 02:32:00,
2013-04-02 22:42:00,26.8,13.6,29.88,West,272,12.0,12.0,57,0.00,CLR,BKN,0.01,WeatherDisplay:10.37,2013-04-03 02:42:00,
2013-04-02 22:47:00,26.8,13.2,29.85,WNW,290,9.0,12.0,56,0.00,CLR,BKN,0.01,WeatherDisplay:10.37,2013-04-03 02:47:00,
2013-04-02 22:53:00,26.8,13.6,29.85,West,278,9.0,17.0,57,0.00,CLR,BKN,0.01,WeatherDisplay:10.37,2013-04-03 02:53:00,
2013-04-02 23:02:00,27.0,14.1,29.88,West,269,13.0,17.0,58,0.00,CLR,BKN,0.01,WeatherDisplay:10.37,2013-04-03 03:02:00,
2013-04-02 23:07:00,26.8,15.5,29.88,West,278,15.0,17.0,62,0.00,CLR,BKN,0.01,WeatherDisplay:10.37,2013-04-03 03:07:00,
2013-04-02 23:17:00,26.4,16.2,29.88,WNW,292,14.0,14.0,65,0.00,CLR,BKN,0.01,WeatherDisplay:10.37,2013-04-03 03:17:00,
2013-04-02 23:22:00,26.1,15.9,29.88,West,281,12.0,13.0,65,0.00,CLR,BKN,0.01,WeatherDisplay:10.37,2013-04-03 03:22:00,
2013-04-02 23:27:00,25.9,15.7,29.88,WNW,283,10.0,10.0,65,0.00,CLR,BKN,0.01,WeatherDisplay:10.37,2013-04-03 03:27:00,
2013-04-02 23:32:00,25.5,15.4,29.85,WNW,291,9.0,15.0,65,0.00,CLR,BKN,0.01,WeatherDisplay:10.37,2013-04-03 03:32:00,
2013-04-02 23:42:00,25.5,14.7,29.85,West,277,9.0,18.0,63,0.00,CLR,BKN,0.01,WeatherDisplay:10.37,2013-04-03 03:42:00,
2013-04-02 23:47:00,25.7,14.8,29.85,WNW,285,14.0,22.0,63,0.00,CLR,BKN,0.01,WeatherDisplay:10.37,2013-04-03 03:47:00,
2013-04-02 23:52:00,25.7,14.8,29.85,West,275,16.0,22.0,63,0.00,CLR,BKN,0.01,WeatherDisplay:10.37,2013-04-03 03:52:00,
2013-04-02 23:57:00,25.7,14.8,29.85,West,276,16.0,16.0,63,0.00,CLR,BKN,0.01,WeatherDisplay:10.37,2013-04-03 03:57:00,